Temperature
28 28 27 28 29 28 28 28 28 29 29 29 28 28 27 26 26 26 24 24 23 22 21 20 20 19 18 18 17 17 17 17 17 16 16 16 16 16 16 15 15 15 15 15
28 28 29 29 29 29 28 28 28 28 29 28 28 28 28 27 27 25 25 24 23 22 21 20 19 19 18 18 17 17 17 16 16 16 16 16 15 15 15 15 15 15 15 15
28 29 29 29 29 28 29 28 28 27 28 29 28 27 27 27 26 25 25 24 23 22 21 20 19 19 18 18 17 17 17 16 16 16 15 15 15 15 15 15 15 15 15 15
29 30 29 29 29 28 28 29 29 28 27 27 28 26 26 25 25 25 25 24 23 22 21 20 20 19 18 18 17 17 16 16 16 15 15 15 15 15 15 15 15 15 15 14
29 30 29 29 29 29 29 30 29 28 28 27 27 26 26 26 25 25 25 24 23 22 21 20 20 19 18 17 17 17 16 16 15 15 15 15 15 15 15 15 14 14 14 14
30 31 30 30 30 30 30 29 29 28 28 26 27 27 25 26 25 25 25 24 23 22 21 20 19 19 18 17 17 16 16 16 15 15 15 15 15 15 14 14 14 14 14 14
29 30 31 31 29 30 29 28 26 26 26 26 27 26 25 26 26 26 25 24 22 21 20 20 19 18 18 17 16 16 16 15 15 15 15 15 14 14 14 14 14 14 14 14
28 28 30 30 29 29 29 28 26 24 25 25 26 25 25 26 26 25 24 23 22 21 20 20 19 18 17 17 16 16 15 15 15 15 15 14 14 14 14 14 14 14 14 13
27 28 30 30 30 29 28 28 28 27 26 26 26 25 25 26 25 25 24 23 22 21 20 20 19 18 17 17 16 15 15 15 15 14 14 14 14 14 14 14 14 14 13 13
28 27 29 30 30 30 29 28 27 26 25 25 25 25 24 24 24 24 23 23 22 21 20 19 18 18 17 16 16 15 15 15 15 15 14 14 14 14 14 13 13 13 13 13
29 27 28 29 28 28 28 28 27 27 27 25 24 24 25 25 24 24 23 22 22 21 20 19 18 17 17 16 16 15 15 15 15 14 14 14 14 14 13 13 13 13 13 13
28 28 27 28 29 30 29 28 27 26 26 26 25 24 26 25 25 24 23 22 21 21 20 19 18 17 17 16 16 15 15 15 15 14 14 14 14 13 13 13 13 13 13 13
27 26 25 26 27 28 28 28 28 27 26 26 25 24 25 25 24 23 23 22 21 20 19 19 18 17 16 16 16 15 15 15 15 14 14 14 14 13 13 13 13 13 13 13
26 26 25 25 26 27 27 28 28 27 26 25 25 24 24 24 23 23 22 21 20 20 19 18 18 17 16 16 15 15 15 15 15 14 14 14 13 13 13 13 13 13 13 12
26 26 26 27 28 28 27 27 28 27 26 25 25 25 24 23 23 22 22 21 20 19 18 18 17 17 16 16 15 15 15 15 14 14 14 14 13 13 13 13 13 13 12 12
26 25 26 26 27 27 27 27 27 27 27 26 25 24 24 24 23 22 21 20 20 19 18 17 17 16 16 16 15 15 15 14 14 14 14 14 14 13 13 13 13 12 12 12
25 24 24 25 27 27 26 27 27 26 26 26 24 23 24 23 22 21 21 20 19 18 18 17 16 16 16 16 15 15 15 14 14 14 14 14 13 13 13 13 13 12 12 12
24 24 24 24 25 23 25 27 27 26 25 25 24 23 23 22 22 21 20 19 19 18 17 17 16 16 16 15 15 15 15 14 14 14 14 14 14 13 13 13 13 12 12 12
25 24 24 24 24 24 25 25 26 25 23 24 23 23 22 21 21 20 19 18 18 17 17 16 16 16 15 15 15 14 14 14 14 14 14 14 13 13 13 13 13 12 12 12
25 24 23 23 23 23 23 24 25 25 22 23 22 22 21 21 21 20 18 18 17 17 16 16 16 15 15 15 14 14 14 14 14 14 13 13 13 13 13 13 12 12 12 12
24 24 23 23 22 23 23 24 24 22 21 21 21 21 20 20 19 18 18 17 17 16 16 16 15 15 15 14 14 14 14 14 13 13 13 13 13 13 13 12 12 12 12 12
23 23 23 22 22 21 22 23 21 20 20 20 20 19 19 18 18 18 17 17 17 16 16 15 15 15 14 14 14 14 14 13 13 13 13 13 13 13 13 12 12 12 12 12
23 23 23 22 21 21 21 20 19 19 19 20 19 19 18 18 18 17 17 16 16 16 16 15 15 15 14 14 14 14 13 13 13 13 13 13 13 12 12 12 12 12 12 12
23 23 22 22 21 21 20 20 19 19 19 19 19 18 18 17 17 17 16 16 16 15 15 15 15 15 14 14 14 13 13 13 13 13 13 13 12 12 12 12 12 12 12 12
22 21 22 21 21 21 20 20 19 19 19 18 18 18 17 17 17 16 16 16 15 15 15 15 15 14 14 14 14 13 13 13 13 13 13 13 13 13 13 13 13 13 12 12
21 21 20 20 20 20 20 19 19 19 18 18 18 17 17 17 16 16 16 15 15 15 15 15 14 14 14 14 14 13 13 13 13 13 13 13 13 13 13 13 13 13 13 12
Wind_Speed
12 11 11 9 8 10 10 10 10 7 5 5 6 5 6 7 7 6 5 4 4 3 3 4 3 3 3 2 2 1 1 1 1 1 1 2 2 2 2 2 1 1 2 3
11 14 11 10 10 11 12 12 10 6 3 4 5 5 5 7 7 7 6 4 4 4 3 3 2 2 2 2 1 1 1 1 1 1 1 2 2 2 2 2 2 3 3 4
13 8 6 9 12 12 13 11 7 6 8 9 7 7 6 5 6 7 5 5 4 4 3 3 1 1 2 2 1 1 2 1 1 1 1 2 2 2 2 2 2 2 3 3
11 9 8 10 11 9 11 8 7 9 9 8 7 6 5 8 7 7 6 4 3 3 3 2 1 1 2 1 1 2 2 1 1 0 1 2 2 2 3 2 2 3 3 2
10 9 10 10 10 8 9 9 9 12 12 11 9 7 5 8 7 6 5 3 2 2 2 1 1 2 1 1 2 2 3 2 1 0 1 2 3 3 2 2 2 2 2 2
11 9 8 8 9 8 8 10 11 12 10 11 9 7 4 5 6 6 5 3 3 2 2 2 2 2 2 2 3 3 3 2 1 1 1 2 3 4 3 3 2 2 2 2
11 10 9 8 9 8 8 8 7 7 7 6 5 3 3 6 6 6 4 4 4 3 2 2 2 3 3 2 2 2 2 1 1 1 1 2 3 3 3 2 2 2 2 1
10 8 6 6 7 7 7 8 6 7 7 6 6 2 5 8 8 7 6 4 4 3 2 3 3 3 3 3 3 2 1 1 0 0 1 1 3 2 2 2 2 2 2 1
7 6 3 4 5 7 7 7 7 9 11 9 3 4 5 7 6 6 5 4 4 2 2 3 3 3 3 3 3 3 2 1 0 0 1 1 1 2 2 2 2 2 2 1
7 9 6 3 6 8 7 6 5 6 7 7 3 3 5 6 5 5 3 2 3 3 3 3 3 3 3 3 2 2 2 1 0 1 1 1 1 1 2 2 3 2 2 2
7 7 8 6 6 6 5 5 5 6 7 6 5 2 4 6 5 5 3 3 3 4 3 3 2 3 3 2 2 2 2 2 1 1 2 2 2 2 2 1 2 2 1 1
5 6 7 6 4 5 6 6 6 6 7 7 6 1 7 7 6 6 4 4 4 4 4 3 3 3 3 2 2 2 2 2 2 1 1 2 2 2 1 1 1 1 2 1
5 4 6 5 5 5 6 6 7 7 6 7 6 1 7 5 5 5 4 4 4 4 4 4 3 3 3 2 2 2 2 2 2 2 1 1 1 1 2 1 1 1 1 1
4 5 7 8 6 4 6 6 6 7 6 6 4 1 4 3 4 5 4 4 4 4 4 3 3 3 2 2 2 2 2 2 2 2 1 1 1 1 2 2 1 1 2 2
3 7 9 10 10 8 7 7 7 7 7 6 4 3 1 3 4 4 3 3 4 4 4 3 3 3 2 2 2 2 2 1 2 2 2 1 1 1 1 1 1 2 2 3
2 6 10 11 10 9 9 8 7 7 6 4 2 2 3 5 4 4 3 3 3 4 4 4 3 2 2 2 1 1 1 1 2 2 2 1 1 1 2 2 2 2 2 3
4 6 9 10 9 9 9 7 6 5 4 4 3 1 3 3 3 3 3 3 3 3 3 3 3 2 1 1 1 1 1 1 1 1 1 2 2 2 2 2 2 2 2 3
6 7 7 10 9 10 4 3 3 3 2 3 3 3 3 3 4 6 5 4 4 3 3 3 3 3 2 2 2 1 1 2 2 2 2 2 2 2 1 2 2 2 2 2
7 7 7 8 9 9 5 3 3 2 1 4 4 4 4 3 5 6 5 5 4 4 4 3 2 3 3 3 2 2 2 2 3 3 3 3 3 3 2 2 2 2 2 3
9 8 8 9 10 8 2 1 3 2 1 4 5 4 3 2 1 3 4 4 4 4 3 3 3 3 3 2 2 2 2 3 3 4 3 3 3 3 3 2 2 2 3 3
9 9 10 11 10 5 1 2 1 2 1 5 5 4 3 2 3 3 4 3 4 4 3 3 2 2 2 2 1 1 2 3 3 3 3 3 3 3 2 2 2 3 3 4
6 6 7 7 8 4 3 2 2 4 4 4 4 4 4 5 5 4 4 4 4 3 2 2 2 2 2 1 1 1 2 2 3 3 3 3 2 4 3 2 2 3 4 4
4 3 3 2 1 5 6 6 5 3 2 3 3 4 4 3 3 3 4 3 3 2 2 1 1 1 1 1 1 1 2 2 2 3 3 3 3 3 4 3 3 3 3 4
2 1 2 1 3 4 4 4 3 2 2 2 3 3 3 3 3 3 3 3 2 2 1 1 1 1 1 1 2 2 1 1 2 3 3 3 3 3 3 3 3 3 3 3
5 4 3 3 2 3 2 2 3 3 3 3 3 3 2 2 2 3 3 2 2 2 2 1 1 1 2 2 2 2 1 1 2 3 3 4 4 4 2 3 3 3 2 2
6 5 4 3 2 2 1 1 2 3 3 3 3 2 2 1 1 1 1 1 1 1 1 2 2 2 3 3 2 2 1 1 2 4 4 4 4 3 3 3 3 2 1 2
Wind_Direction
231 235 247 257 254 267 283 283 279 261 219 226 230 215 195 181 178 174 179 179 147 125 129 108 97 78 63 64 75 93 113 124 185 235 237 248 249 250 250 231 205 215 246 244
247 243 249 264 267 265 270 270 271 285 277 254 252 236 219 191 181 171 173 173 155 149 148 116 108 98 84 72 89 128 131 140 185 241 270 259 250 249 245 251 221 223 235 246
246 257 250 254 259 260 265 271 270 280 272 251 243 249 217 200 174 157 159 174 178 165 150 137 131 91 98 86 84 87 108 106 146 232 261 276 272 270 270 255 236 244 240 241
252 252 246 250 256 260 273 276 270 265 264 268 252 271 190 173 179 163 165 180 176 153 134 140 144 110 80 82 90 98 99 100 127 225 273 282 286 288 279 258 247 260 249 244
255 245 239 247 260 259 273 280 268 265 264 267 254 255 205 173 172 164 166 184 130 120 108 134 129 103 88 88 85 90 83 69 62 19 308 297 303 295 292 281 258 263 263 258
267 262 255 256 263 262 269 277 269 261 260 261 257 252 205 174 168 150 143 133 103 79 73 80 85 82 62 49 63 71 71 49 34 358 330 307 311 312 315 313 300 291 286 274
253 248 239 241 256 254 256 273 284 276 250 259 264 255 153 128 119 115 113 103 96 79 58 74 54 53 45 37 49 50 58 39 18 343 324 313 301 300 313 322 321 313 304 303
272 257 234 221 240 261 260 259 269 280 286 289 264 214 131 112 104 102 103 96 94 92 79 79 66 62 52 39 36 35 51 23 357 321 312 298 289 303 341 339 328 326 330 349
288 280 254 204 235 257 266 274 282 281 280 279 248 137 131 118 108 98 94 94 91 93 87 79 79 65 48 41 41 26 30 27 303 269 243 272 345 358 356 337 346 357 350 350
265 278 264 214 235 233 259 281 296 284 290 290 268 195 163 147 131 108 86 91 91 92 86 83 79 72 63 49 47 46 41 51 39 332 301 2 23 7 7 353 8 11 6 1
265 266 260 238 236 265 255 255 269 280 288 298 301 4 103 106 106 105 99 92 81 72 77 88 87 90 78 65 55 49 44 42 35 1 20 36 23 13 17 17 9 9 12 355
273 279 274 253 252 267 258 263 266 275 291 293 298 41 100 97 98 95 88 82 83 76 68 68 74 72 64 48 37 43 30 30 13 13 47 49 27 13 4 5 14 25 16 345
312 276 271 254 243 241 252 250 262 271 279 283 287 164 119 106 98 94 81 68 82 84 70 61 70 72 60 46 36 35 24 17 8 9 22 38 13 354 347 354 31 30 357 339
286 272 270 273 285 279 263 268 268 272 278 283 290 248 127 103 92 81 72 65 75 77 76 64 59 61 56 49 30 22 15 14 5 354 7 29 349 347 345 357 10 9 356 341
290 273 275 277 282 283 282 279 277 269 270 278 279 282 116 109 97 87 76 69 66 62 56 55 56 48 44 30 17 21 9 352 359 8 14 19 11 23 23 2 7 18 352 333
269 287 288 278 270 273 281 280 274 275 282 271 270 314 76 96 94 87 78 69 60 48 41 38 51 42 28 29 18 22 5 357 15 8 1 9 13 44 41 24 28 9 345 341
259 272 282 276 276 274 268 280 275 280 278 279 274 328 82 91 89 98 93 82 67 52 49 44 30 25 23 45 44 37 346 334 13 360 356 8 26 39 27 7 23 3 357 345
262 271 272 275 276 264 270 318 302 296 360 24 83 98 89 85 88 92 90 81 65 59 52 45 24 20 55 61 47 30 352 356 13 0 347 10 24 29 16 -0 358 349 341 331
225 248 263 269 264 253 250 270 290 271 42 56 84 88 79 82 106 101 86 81 73 61 60 59 44 45 54 55 47 29 10 9 1 353 360 9 13 13 2 350 344 335 327 316
217 225 245 261 269 264 259 304 309 257 193 76 92 94 86 102 172 108 78 81 82 71 65 55 53 51 55 50 49 27 2 360 354 358 8 4 5 3 340 327 326 326 313 303
221 224 238 254 260 260 356 31 320 251 87 66 83 91 90 68 44 80 95 89 90 82 72 60 54 57 55 38 35 16 360 359 351 355 356 353 353 335 327 335 324 306 297 294
254 252 240 247 255 254 51 84 61 70 75 82 85 85 75 71 78 83 86 84 92 88 73 55 47 48 48 28 12 356 352 352 356 353 348 346 337 321 326 322 308 301 293 296
255 284 296 309 73 97 87 88 91 97 79 86 93 97 95 87 85 91 90 82 84 88 69 43 22 32 29 345 321 314 328 342 347 342 334 333 326 316 317 309 296 293 296 300
281 337 263 260 128 135 114 111 120 114 87 89 101 104 105 98 94 97 92 78 72 43 28 24 340 327 316 295 281 281 305 326 329 325 317 308 300 296 305 302 306 311 321 323
307 303 285 253 192 161 120 111 113 105 112 115 113 111 116 113 96 100 100 80 55 38 15 353 312 298 297 286 272 276 287 291 303 304 300 297 293 290 295 296 298 300 320 323
286 284 275 281 338 296 151 131 129 135 135 136 132 115 103 111 98 92 94 89 63 20 356 338 327 314 302 294 280 284 286 284 296 299 295 297 291 287 285 283 297 321 275 259
Height
1473 1476 1475 1470 1468 1469 1469 1470 1470 1464 1460 1464 1467 1469 1472 1475 1477 1479 1483 1486 1488 1490 1491 1492 1493 1493 1493 1492 1492 1491 1491 1490 1490 1490 1490 1491 1491 1492 1492 1492 1493 1493 1493 1493
1472 1471 1467 1464 1464 1465 1467 1469 1467 1462 1458 1463 1465 1467 1467 1470 1474 1478 1482 1485 1487 1489 1491 1492 1492 1492 1492 1491 1491 1490 1490 1489 1489 1489 1489 1489 1490 1490 1490 1490 1490 1490 1490 1490
1469 1464 1462 1464 1464 1466 1464 1465 1465 1467 1463 1460 1464 1470 1468 1468 1473 1477 1480 1483 1485 1487 1489 1490 1491 1491 1491 1491 1490 1490 1489 1488 1487 1487 1488 1488 1488 1488 1488 1488 1488 1487 1487 1487
1462 1458 1460 1462 1462 1463 1467 1458 1460 1463 1467 1468 1465 1480 1472 1470 1474 1476 1479 1482 1483 1485 1487 1489 1490 1490 1490 1490 1489 1488 1487 1487 1486 1486 1486 1486 1486 1486 1486 1486 1485 1485 1484 1484
1457 1455 1456 1460 1459 1459 1459 1455 1457 1460 1463 1466 1463 1474 1473 1468 1474 1475 1477 1480 1482 1484 1486 1488 1489 1489 1489 1489 1488 1487 1486 1486 1485 1485 1485 1485 1484 1484 1484 1483 1483 1482 1482 1482
1453 1450 1451 1453 1453 1453 1454 1455 1455 1455 1460 1476 1465 1471 1476 1468 1471 1472 1475 1479 1481 1484 1485 1487 1488 1488 1488 1488 1487 1486 1485 1484 1484 1484 1483 1483 1482 1482 1481 1481 1480 1480 1480 1479
1456 1450 1448 1449 1454 1453 1454 1465 1476 1479 1478 1477 1462 1468 1474 1464 1465 1470 1474 1478 1480 1483 1486 1487 1487 1487 1487 1487 1486 1485 1484 1483 1483 1482 1482 1481 1481 1480 1480 1479 1479 1478 1478 1477
1463 1459 1446 1447 1452 1457 1456 1461 1482 1493 1487 1478 1466 1471 1470 1463 1467 1470 1474 1477 1480 1483 1484 1486 1486 1486 1486 1486 1485 1484 1483 1482 1481 1481 1480 1480 1479 1479 1478 1478 1478 1477 1476 1476
1462 1459 1445 1445 1448 1451 1456 1457 1457 1468 1470 1476 1470 1469 1470 1466 1469 1472 1475 1478 1480 1482 1484 1485 1485 1486 1486 1485 1485 1484 1483 1482 1481 1480 1480 1479 1479 1478 1477 1477 1477 1476 1475 1474
1454 1461 1448 1446 1447 1448 1450 1454 1460 1470 1481 1483 1475 1471 1474 1471 1471 1473 1476 1478 1480 1481 1483 1484 1485 1485 1485 1485 1484 1483 1482 1481 1480 1480 1479 1479 1478 1477 1477 1476 1476 1475 1474 1473
1449 1459 1453 1448 1452 1454 1453 1455 1459 1463 1464 1479 1487 1484 1465 1467 1469 1471 1475 1477 1479 1481 1482 1483 1484 1485 1485 1485 1484 1483 1482 1481 1480 1480 1479 1478 1478 1477 1476 1476 1475 1474 1472 1472
1450 1455 1458 1451 1444 1444 1448 1453 1457 1471 1471 1466 1475 1483 1463 1466 1469 1471 1474 1477 1479 1481 1482 1483 1484 1484 1484 1484 1483 1483 1482 1481 1480 1480 1479 1478 1477 1476 1476 1475 1474 1473 1472 1471
1454 1459 1469 1465 1458 1451 1451 1450 1451 1455 1461 1468 1477 1480 1466 1468 1470 1472 1475 1478 1480 1481 1482 1483 1483 1484 1484 1483 1483 1482 1482 1481 1480 1479 1478 1478 1477 1476 1475 1474 1474 1473 1472 1470
1456 1459 1466 1472 1463 1454 1454 1451 1450 1455 1464 1468 1469 1470 1468 1468 1471 1474 1476 1478 1480 1481 1482 1482 1483 1483 1483 1483 1482 1482 1481 1480 1479 1479 1478 1477 1476 1476 1475 1474 1473 1473 1471 1470
1456 1460 1456 1452 1448 1448 1450 1451 1451 1454 1457 1464 1465 1466 1466 1468 1471 1474 1477 1478 1480 1481 1482 1482 1482 1483 1482 1482 1482 1481 1481 1480 1479 1478 1477 1477 1476 1475 1474 1474 1473 1472 1471 1469
1457 1462 1458 1456 1449 1448 1451 1450 1451 1452 1453 1457 1461 1466 1465 1468 1471 1474 1477 1479 1480 1481 1482 1482 1482 1482 1482 1482 1481 1481 1480 1480 1478 1478 1477 1477 1476 1475 1474 1473 1472 1472 1470 1469
1458 1463 1465 1462 1450 1451 1458 1450 1450 1453 1453 1456 1464 1467 1466 1469 1472 1475 1477 1479 1480 1482 1482 1482 1482 1482 1482 1482 1481 1481 1480 1479 1479 1478 1477 1477 1476 1475 1474 1473 1472 1471 1469 1468
1460 1462 1463 1461 1461 1474 1458 1447 1448 1452 1455 1457 1461 1465 1467 1471 1473 1475 1477 1479 1481 1482 1482 1482 1482 1481 1481 1481 1481 1481 1481 1480 1479 1478 1478 1477 1476 1475 1474 1473 1472 1470 1469 1468
1455 1460 1463 1463 1465 1462 1455 1450 1450 1454 1461 1461 1463 1467 1469 1471 1474 1477 1479 1480 1481 1482 1482 1482 1482 1482 1481 1481 1481 1481 1480 1480 1479 1478 1477 1477 1475 1474 1473 1472 1471 1470 1468 1467
1450 1455 1462 1462 1468 1470 1460 1452 1451 1455 1465 1464 1465 1468 1470 1471 1474 1477 1479 1480 1481 1481 1482 1482 1482 1481 1481 1481 1481 1481 1480 1480 1479 1478 1477 1476 1475 1474 1473 1472 1470 1469 1467 1466
1453 1455 1460 1462 1465 1461 1456 1453 1454 1467 1471 1467 1468 1470 1472 1473 1475 1478 1478 1479 1480 1481 1481 1481 1482 1481 1481 1481 1481 1480 1480 1479 1479 1478 1476 1475 1474 1474 1472 1471 1470 1468 1466 1465
1453 1456 1458 1460 1466 1468 1458 1457 1463 1469 1467 1468 1470 1472 1474 1475 1476 1477 1478 1479 1480 1481 1481 1481 1481 1481 1481 1480 1480 1479 1479 1479 1478 1477 1476 1475 1474 1473 1472 1470 1469 1467 1465 1464
1451 1454 1454 1458 1464 1462 1462 1464 1467 1468 1469 1470 1471 1473 1474 1475 1476 1477 1478 1479 1480 1480 1481 1481 1481 1481 1481 1480 1480 1479 1479 1478 1477 1476 1475 1474 1472 1471 1470 1469 1467 1466 1464 1463
1450 1451 1453 1456 1459 1461 1463 1465 1466 1468 1469 1471 1472 1473 1474 1476 1476 1477 1478 1479 1479 1480 1480 1480 1480 1480 1480 1479 1479 1478 1478 1477 1476 1475 1474 1472 1471 1470 1469 1468 1466 1465 1463 1461
1453 1455 1455 1457 1459 1461 1463 1465 1466 1468 1469 1471 1472 1473 1474 1476 1476 1477 1478 1479 1479 1480 1480 1480 1480 1479 1479 1478 1478 1477 1477 1476 1475 1474 1472 1471 1470 1469 1467 1466 1464 1463 1462 1460
1457 1457 1459 1460 1461 1461 1463 1464 1466 1467 1469 1471 1472 1473 1474 1476 1476 1477 1478 1478 1479 1479 1479 1478 1478 1478 1478 1477 1476 1476 1475 1474 1473 1472 1471 1470 1469 1467 1466 1464 1463 1461 1460 1458